"SCET";"TARGET";"ELECTRON_DENSITY";"ERROR_FLAG";"ELECTRON_DENSITY_ERROR";"FREQ_FCE";"MEASURED_VALUE";"MEASURED_ITEM";"FREQ_PLASMA";"FREQ_UPPER_HYBRID";"FREQ_R_EQUALS_ZERO";"FREQ_L_EQUALS_ZERO";"ORBIT_NUMBER";"SATURN_RADIUS";"SATURN_IAU_LONGITUDE";"SATURN_SLS4_S_LONGITUDE";"SATURN_SLS4_N_LONGITUDE";"SATURN_SLS5_S_LONGITUDE";"SATURN_SLS5_N_LONGITUDE";"SATURN_LOCAL_TIME";"SATURN_KRONOGRAPHIC_LATITUDE";"SATURN_MAGNETIC_LATITUDE";"SATURN_L";"SATURN_L_OFFSET";"SATURN_SOLAR_EQUATORIAL_X";"SATURN_SOLAR_EQUATORIAL_Y";"SATURN_SOLAR_EQUATORIAL_Z";"SATURN_ALTITUDE";"ENCELADUS_ENCOUNTER_NUMBER";"ENCELADUS_RADIUS";"ENCELADUS_COROTATIONAL_X";"ENCELADUS_COROTATIONAL_Y";"ENCELADUS_COROTATIONAL_Z";"ENCELADUS_TRUE_ANOMALY";"ENCELADUS_PERIAPSIS_TIME";"JUPITER_RADIUS";"JUPITER_SYSTEMIII_LONGITUDE";"JUPITER_MAGNETIC_LATITUDE";"JUPITER_MAGNETIC_LOCAL_TIME";"JUPITER_L";"IO_PHASE";"EARTH_RADIUS";"EARTH_MAGNETIC_LATITUDE";"EARTH_LOCAL_TIME";"EARTH_L"
"[UTC]";"[0=Saturn, 1=Enceladus, 2=Jupiter, 3=Earth]";"[cm-3]";"[0=automated, 1=manual]";"[normalized density error]";"[Hz]";"[Hz]";"[0=upper hybrid frequency, 1=plasma frequency cutoff]";"[Hz]";"[Hz]";"[Hz]";"[Hz}";"[0, A, B, C, 3, 4, ... , 292, 293]";"[Rs where 1Rs=60268km]";"[degrees]";"[degrees]";"[degrees]";"[degrees]";"[degrees]";"[hours]";"[degrees]";"[degrees where offset=2293km north]";"[Rs where 1Rs=60268km]";"[Rs where 1Rs=60268km and offset=2293km north]";"[Rs where 1Rs=60268km]";"[Rs where 1Rs=60268km]";"[Rs where 1Rs=60268km]";"[km where ellipsoid a,b=60268km and c=54364km]";"[E0, E1, E2, ... , E21, E22]";"[Renc where 1Renc=252.1km]";"[Renc where 1Renc=252.1km]";"[Renc where 1Renc=252.1km]";"[Renc where 1Renc=252.1km]";"[degrees]";"[UTC]";"[Rj where 1Rj=71492km]";"[degrees]";"[degrees using JRM09 model]";"[hours using JRM09 model]";"[Rj where 1Rj=71492km]";"[degrees]";"[Re where 1Re=6378.1366km]";"[degrees]";"[hours]";"[Re where 1Re=6378.1366km]"
2008-03-02T02:37:15.573Z;0;1.0440e+01;0;     0.318;  8451.800;  30221.799; 0;  29015.930;  30221.799;  33547.945;  25096.146; 60;   4.088; 189.182;  26.386; 186.900;  15.691; 184.174;  22.905;   6.836;   6.306;   4.147;   4.080;  -3.894;   1.147;   0.486;;;;;;;;;;;;;;;;;;
2008-03-02T02:37:27.823Z;0;9.9860e+00;0;     0.325;  8451.800;  29609.473; 0;  28377.596;  29609.473;  32916.426;  24464.625; 60;   4.087; 189.271;  26.473; 186.991;  15.781; 184.265;  22.907;   6.798;   6.268;   4.145;   4.079;  -3.894;   1.145;   0.484;;;;;;;;;;;;;;;;;;
2008-03-02T02:37:40.198Z;0;1.0270e+01;0;     0.286;  8451.800;  29995.627; 0;  28780.283;  29995.627;  33314.781;  24862.980; 60;   4.086; 189.362;  26.562; 187.082;  15.871; 184.357;  22.909;   6.761;   6.231;   4.144;   4.078;  -3.894;   1.144;   0.481;;;;;;;;;;;;;;;;;;
2008-03-02T02:37:52.573Z;0;9.9510e+00;0;     0.339;  8451.800;  29561.986; 0;  28328.045;  29561.986;  32867.414;  24415.613; 60;   4.086; 189.452;  26.651; 187.173;  15.961; 184.449;  22.910;   6.723;   6.193;   4.142;   4.077;  -3.894;   1.142;   0.478;;;;;;;;;;;;;;;;;;
2008-03-02T02:38:04.948Z;0;9.9750e+00;0;     0.306;  8468.853;  29598.818; 0;  28361.393;  29598.818;  32910.184;  24441.330; 60;   4.085; 189.543;  26.739; 187.264;  16.052; 184.540;  22.912;   6.686;   6.155;   4.141;   4.076;  -3.894;   1.140;   0.475;;;;;;;;;;;;;;;;;;
2008-03-02T02:38:17.323Z;0;1.0400e+01;0;     0.321;  8468.853;  30166.863; 0;  28953.725;  30166.863;  33496.152;  25027.299; 60;   4.084; 189.633;  26.828; 187.355;  16.142; 184.632;  22.914;   6.648;   6.117;   4.139;   4.075;  -3.894;   1.138;   0.473;;;;;;;;;;;;;;;;;;
2008-03-02T02:38:29.573Z;0;9.9680e+00;0;     0.313;  8468.853;  29589.775; 0;  28351.955;  29589.775;  32900.848;  24431.996; 60;   4.083; 189.723;  26.916; 187.445;  16.232; 184.723;  22.916;   6.611;   6.080;   4.138;   4.075;  -3.893;   1.136;   0.470;;;;;;;;;;;;;;;;;;
2008-03-02T02:38:41.823Z;0;1.0000e+01;0;     0.333;  8468.853;  29638.221; 0;  28402.512;  29638.221;  32950.852;  24481.998; 60;   4.082; 189.812;  27.003; 187.535;  16.322; 184.814;  22.917;   6.573;   6.042;   4.136;   4.074;  -3.893;   1.134;   0.467;;;;;;;;;;;;;;;;;;
2008-03-02T02:38:54.073Z;0;1.0120e+01;0;     0.324;  8468.853;  29797.525; 0;  28568.707;  29797.525;  33115.242;  24646.389; 60;   4.081; 189.902;  27.091; 187.625;  16.411; 184.905;  22.919;   6.536;   6.005;   4.135;   4.073;  -3.893;   1.132;   0.464;;;;;;;;;;;;;;;;;;
2008-03-02T02:39:06.322Z;0;9.7540e+00;0;     0.339;  8486.044;  29301.057; 0;  28045.303;  29301.057;  32607.475;  24121.432; 60;   4.080; 189.991;  27.179; 187.716;  16.501; 184.996;  22.921;   6.499;   5.967;   4.133;   4.072;  -3.893;   1.130;   0.462;;;;;;;;;;;;;;;;;;
2008-03-02T02:39:18.572Z;0;1.0330e+01;0;     0.332;  8486.044;  30086.686; 0;  28865.129;  30086.686;  33418.336;  24932.291; 60;   4.079; 190.081;  27.266; 187.806;  16.591; 185.087;  22.922;   6.461;   5.930;   4.132;   4.071;  -3.893;   1.128;   0.459;;;;;;;;;;;;;;;;;;
2008-03-02T02:39:55.322Z;0;1.0580e+01;0;     0.323;  8486.044;  30412.629; 0;  29204.709;  30412.629;  33754.348;  25268.303; 60;   4.077; 190.349;  27.529; 188.076;  16.860; 185.360;  22.927;   6.349;   5.817;   4.127;   4.069;  -3.893;   1.123;   0.451;;;;;;;;;;;;;;;;;;
2008-03-02T02:40:07.697Z;0;1.0630e+01;0;     0.381;  8503.432;  30485.551; 0;  29275.596;  30485.551;  33834.441;  25331.008; 60;   4.076; 190.440;  27.618; 188.167;  16.950; 185.451;  22.929;   6.312;   5.779;   4.126;   4.068;  -3.893;   1.121;   0.448;;;;;;;;;;;;;;;;;;
2008-03-02T02:40:19.947Z;0;1.0630e+01;0;     0.381;  8503.432;  30485.553; 0;  29275.598;  30485.553;  33834.441;  25331.010; 60;   4.075; 190.529;  27.706; 188.257;  17.037; 185.541;  22.931;   6.274;   5.742;   4.124;   4.067;  -3.893;   1.119;   0.445;;;;;;;;;;;;;;;;;;
2008-03-02T02:40:32.197Z;0;1.1030e+01;0;     0.352;  8503.432;  31012.100; 0;  29823.514;  31012.100;  34376.773;  25873.342; 60;   4.074; 190.619;  27.793; 188.347;  17.125; 185.630;  22.933;   6.237;   5.704;   4.123;   4.066;  -3.893;   1.117;   0.442;;;;;;;;;;;;;;;;;;
2008-03-02T02:40:44.572Z;0;1.1210e+01;0;     0.349;  8503.432;  31245.117; 0;  30065.744;  31245.117;  34616.598;  26113.166; 60;   4.073; 190.709;  27.882; 188.438;  17.214; 185.721;  22.934;   6.199;   5.666;   4.121;   4.065;  -3.893;   1.115;   0.440;;;;;;;;;;;;;;;;;;
2008-03-02T02:40:56.822Z;0;1.0550e+01;0;     0.297;  8503.432;  30377.863; 0;  29163.439;  30377.863;  33723.453;  25220.021; 60;   4.072; 190.798;  27.969; 188.528;  17.301; 185.811;  22.936;   6.161;   5.629;   4.120;   4.064;  -3.893;   1.113;   0.437;;;;;;;;;;;;;;;;;;
2008-03-02T02:41:09.072Z;0;1.1270e+01;0;     0.348;  8520.960;  31322.166; 0;  30140.857;  31322.166;  34700.965;  26180.004; 60;   4.072; 190.888;  28.057; 188.618;  17.389; 185.900;  22.938;   6.124;   5.591;   4.118;   4.063;  -3.893;   1.111;   0.434;;;;;;;;;;;;;;;;;;
2008-03-02T02:41:21.447Z;0;1.0510e+01;0;     0.444;  8520.960;  30332.094; 0;  29110.637;  30332.094;  33681.234;  25160.275; 60;   4.071; 190.978;  28.146; 188.709;  17.477; 185.991;  22.939;   6.086;   5.553;   4.117;   4.063;  -3.893;   1.109;   0.431;;;;;;;;;;;;;;;;;;
2008-03-02T02:41:46.196Z;0;1.0700e+01;0;     0.307;  8520.960;  30581.174; 0;  29370.076;  30581.174;  33937.965;  25417.006; 60;   4.069; 191.159;  28.323; 188.891;  17.654; 186.172;  22.943;   6.010;   5.477;   4.114;   4.061;  -3.893;   1.106;   0.426;;;;;;;;;;;;;;;;;;
2008-03-02T02:41:58.571Z;0;1.0720e+01;0;     0.385;  8520.960;  30612.012; 0;  29402.186;  30612.012;  33969.742;  25448.781; 60;   4.068; 191.249;  28.411; 188.982;  17.742; 186.262;  22.945;   5.972;   5.439;   4.113;   4.060;  -3.893;   1.104;   0.423;;;;;;;;;;;;;;;;;;
2008-03-02T02:42:23.071Z;0;1.1770e+01;0;     0.343;  8538.684;  31964.090; 0;  30802.498;  31964.090;  35366.305;  26827.623; 60;   4.066; 191.428;  28.586; 189.162;  17.917; 186.441;  22.948;   5.897;   5.363;   4.110;   4.058;  -3.892;   1.100;   0.418;;;;;;;;;;;;;;;;;;
2008-03-02T02:42:35.321Z;0;1.1810e+01;0;     0.308;  8538.684;  32018.188; 0;  30858.633;  32018.188;  35421.910;  26883.227; 60;   4.065; 191.518;  28.674; 189.252;  18.004; 186.530;  22.950;   5.859;   5.326;   4.108;   4.058;  -3.892;   1.098;   0.415;;;;;;;;;;;;;;;;;;
2008-03-02T02:42:47.571Z;0;1.1140e+01;0;     0.307;  8538.684;  31169.344; 0;  29976.973;  31169.344;  34548.809;  26010.125; 60;   4.065; 191.607;  28.761; 189.342;  18.091; 186.619;  22.951;   5.822;   5.288;   4.107;   4.057;  -3.892;   1.096;   0.412;;;;;;;;;;;;;;;;;;
2008-03-02T02:42:59.821Z;0;1.2070e+01;0;     0.376;  8538.684;  32348.689; 0;  31201.420;  32348.689;  35761.496;  27222.814; 60;   4.064; 191.696;  28.849; 189.432;  18.178; 186.708;  22.953;   5.784;   5.250;   4.105;   4.056;  -3.892;   1.094;   0.409;;;;;;;;;;;;;;;;;;
2008-03-02T02:43:24.446Z;0;1.1350e+01;0;     0.397;  8556.688;  31443.055; 0;  30256.385;  31443.055;  34835.715;  26279.027; 60;   4.062; 191.876;  29.025; 189.613;  18.353; 186.887;  22.956;   5.708;   5.174;   4.103;   4.054;  -3.892;   1.090;   0.404;;;;;;;;;;;;;;;;;;
2008-03-02T02:43:36.696Z;0;1.1900e+01;0;     0.423;  8556.688;  32135.463; 0;  30975.330;  32135.463;  35547.742;  26991.055; 60;   4.061; 191.965;  29.113; 189.703;  18.440; 186.976;  22.958;   5.671;   5.136;   4.101;   4.053;  -3.892;   1.089;   0.401;;;;;;;;;;;;;;;;;;
2008-03-02T02:43:49.070Z;0;1.2210e+01;0;     0.310;  8556.688;  32525.918; 0;  31380.223;  32525.918;  35948.879;  27392.189; 60;   4.060; 192.056;  29.201; 189.794;  18.528; 187.066;  22.960;   5.633;   5.098;   4.100;   4.053;  -3.892;   1.087;   0.398;;;;;;;;;;;;;;;;;;
2008-03-02T02:44:01.445Z;0;1.2420e+01;0;     0.260;  8574.216;  32789.234; 0;  31648.328;  32789.234;  36224.484;  27650.270; 60;   4.059; 192.146;  29.289; 189.885;  18.616; 187.156;  22.962;   5.594;   5.060;   4.098;   4.052;  -3.892;   1.085;   0.396;;;;;;;;;;;;;;;;;;
2008-03-02T02:44:13.695Z;0;1.3080e+01;0;     0.347;  8574.216;  33585.473; 0;  32472.555;  33585.473;  37041.438;  28467.221; 60;   4.059; 192.235;  29.377; 189.975;  18.703; 187.245;  22.963;   5.557;   5.022;   4.097;   4.051;  -3.892;   1.083;   0.393;;;;;;;;;;;;;;;;;;
2008-03-02T02:44:25.945Z;0;1.2900e+01;0;     0.270;  8574.216;  33379.141; 0;  32259.105;  33379.141;  36829.836;  28255.621; 60;   4.058; 192.325;  29.464; 190.065;  18.790; 187.334;  22.965;   5.519;   4.984;   4.096;   4.050;  -3.892;   1.081;   0.390;;;;;;;;;;;;;;;;;;
2008-03-02T02:44:38.195Z;0;1.3190e+01;0;     0.371;  8574.216;  33718.984; 0;  32610.623;  33718.984;  37178.324;  28604.107; 60;   4.057; 192.414;  29.552; 190.155;  18.876; 187.423;  22.967;   5.481;   4.946;   4.094;   4.049;  -3.892;   1.079;   0.387;;;;;;;;;;;;;;;;;;
2008-03-02T02:45:02.695Z;0;1.4140e+01;0;     0.334;  8591.884;  34844.543; 0;  33768.648;  34844.543;  38336.754;  29744.869; 60;   4.055; 192.593;  29.727; 190.335;  19.050; 187.600;  22.970;   5.406;   4.870;   4.092;   4.048;  -3.891;   1.075;   0.382;;;;;;;;;;;;;;;;;;
2008-03-02T02:45:27.445Z;0;1.4610e+01;0;     0.316;  8591.884;  35387.949; 0;  34329.090;  35387.949;  38892.785;  30300.902; 60;   4.053; 192.773;  29.904; 190.517;  19.224; 187.779;  22.974;   5.329;   4.793;   4.089;   4.046;  -3.891;   1.071;   0.376;;;;;;;;;;;;;;;;;;
2008-03-02T02:45:39.695Z;0;1.4180e+01;0;     0.300;  8591.884;  34886.746; 0;  33812.195;  34886.746;  38379.953;  29788.068; 60;   4.053; 192.862;  29.991; 190.606;  19.311; 187.868;  22.975;   5.291;   4.755;   4.087;   4.045;  -3.891;   1.070;   0.374;;;;;;;;;;;;;;;;;;
2008-03-02T02:45:51.945Z;0;1.3790e+01;0;     0.326;  8591.884;  34437.984; 0;  33348.977;  34437.984;  37920.477;  29328.594; 60;   4.052; 192.952;  30.078; 190.696;  19.397; 187.956;  22.977;   5.253;   4.717;   4.086;   4.044;  -3.891;   1.068;   0.371;;;;;;;;;;;;;;;;;;
2008-03-02T02:46:04.195Z;0;1.3920e+01;0;     0.296;  8610.420;  34590.414; 0;  33501.602;  34590.414;  38082.305;  29471.887; 60;   4.051; 193.041;  30.166; 190.786;  19.484; 188.044;  22.979;   5.215;   4.679;   4.085;   4.044;  -3.891;   1.066;   0.368;;;;;;;;;;;;;;;;;;
2008-03-02T02:46:16.444Z;0;1.4130e+01;0;     0.307;  8610.420;  34833.371; 0;  33752.398;  34833.371;  38331.070;  29720.650; 60;   4.050; 193.130;  30.253; 190.876;  19.570; 188.133;  22.980;   5.177;   4.641;   4.083;   4.043;  -3.891;   1.064;   0.365;;;;;;;;;;;;;;;;;;
2008-03-02T02:46:28.819Z;0;1.4670e+01;0;     0.288;  8610.420;  35457.410; 0;  34396.055;  35457.410;  38969.652;  30359.230; 60;   4.049; 193.220;  30.342; 190.967;  19.657; 188.222;  22.982;   5.139;   4.603;   4.082;   4.042;  -3.891;   1.062;   0.363;;;;;;;;;;;;;;;;;;
2008-03-02T02:46:41.069Z;0;1.5310e+01;0;     0.347;  8610.420;  36181.090; 0;  35141.598;  36181.090;  39709.543;  31099.123; 60;   4.048; 193.309;  30.429; 191.057;  19.744; 188.310;  22.984;   5.101;   4.565;   4.081;   4.041;  -3.891;   1.060;   0.360;;;;;;;;;;;;;;;;;;
2008-03-02T02:46:53.319Z;0;1.5400e+01;0;     0.262;  8610.420;  36272.473; 0;  35235.676;  36272.473;  39802.926;  31192.504; 60;   4.048; 193.399;  30.517; 191.147;  19.830; 188.399;  22.986;   5.063;   4.526;   4.079;   4.040;  -3.891;   1.058;   0.357;;;;;;;;;;;;;;;;;;
2008-03-02T02:47:05.569Z;0;1.6370e+01;0;     0.318;  8629.460;  37342.027; 0;  36331.246;  37342.027;  40901.289;  32271.830; 60;   4.047; 193.488;  30.604; 191.236;  19.916; 188.487;  22.987;   5.025;   4.488;   4.078;   4.039;  -3.890;   1.056;   0.354;;;;;;;;;;;;;;;;;;
2008-03-02T02:47:17.819Z;0;1.5110e+01;0;     0.328;  8629.460;  35953.207; 0;  34902.227;  35953.207;  39482.648;  30853.188; 60;   4.046; 193.577;  30.691; 191.326;  20.002; 188.575;  22.989;   4.987;   4.450;   4.077;   4.039;  -3.890;   1.054;   0.352;;;;;;;;;;;;;;;;;;
2008-03-02T02:47:30.069Z;0;1.5460e+01;0;     0.277;  8629.460;  36350.922; 0;  35311.781;  36350.922;  39889.145;  31259.682; 60;   4.045; 193.666;  30.779; 191.416;  20.088; 188.663;  22.991;   4.949;   4.412;   4.075;   4.038;  -3.890;   1.052;   0.349;;;;;;;;;;;;;;;;;;
2008-03-02T02:47:42.319Z;0;1.6440e+01;0;     0.293;  8629.460;  37424.418; 0;  36415.922;  37424.418;  40985.379;  32355.918; 60;   4.044; 193.756;  30.866; 191.506;  20.174; 188.751;  22.992;   4.911;   4.374;   4.074;   4.037;  -3.890;   1.050;   0.346;;;;;;;;;;;;;;;;;;
2008-03-02T02:47:54.694Z;0;1.7600e+01;0;     0.227;  8629.460;  38649.410; 0;  37673.723;  38649.410;  42234.727;  33605.266; 60;   4.043; 193.846;  30.954; 191.597;  20.261; 188.840;  22.994;   4.873;   4.335;   4.073;   4.036;  -3.890;   1.049;   0.343;;;;;;;;;;;;;;;;;;
2008-03-02T02:48:06.944Z;0;1.7880e+01;0;     0.220;  8648.443;  38941.410; 0;  37968.906;  38941.410;  42538.574;  33890.129; 60;   4.043; 193.935;  31.042; 191.687;  20.347; 188.928;  22.996;   4.835;   4.297;   4.071;   4.035;  -3.890;   1.047;   0.341;;;;;;;;;;;;;;;;;;
2008-03-02T02:48:19.194Z;0;1.6510e+01;0;     0.261;  8648.443;  37503.422; 0;  36492.617;  37503.422;  41072.148;  32423.703; 60;   4.042; 194.024;  31.129; 191.776;  20.433; 189.016;  22.998;   4.797;   4.259;   4.070;   4.035;  -3.890;   1.045;   0.338;;;;;;;;;;;;;;;;;;
2008-03-02T02:48:31.443Z;0;1.7090e+01;0;     0.310;  8648.443;  38115.090; 0;  37120.945;  38115.090;  41696.184;  33047.738; 60;   4.041; 194.113;  31.216; 191.866;  20.518; 189.104;  22.999;   4.758;   4.221;   4.069;   4.034;  -3.890;   1.043;   0.335;;;;;;;;;;;;;;;;;;
2008-03-02T02:48:43.693Z;0;1.5900e+01;0;     0.270;  8648.443;  36839.773; 0;  35810.242;  36839.773;  40394.602;  31746.156; 60;   4.040; 194.203;  31.304; 191.956;  20.604; 189.191;  23.001;   4.720;   4.182;   4.068;   4.033;  -3.890;   1.041;   0.332;;;;;;;;;;;;;;;;;;
2008-03-02T02:48:55.943Z;0;1.5130e+01;0;     0.269;  8648.443;  35986.137; 0;  34931.453;  35986.137;  39522.309;  30873.865; 60;   4.039; 194.292;  31.391; 192.046;  20.690; 189.279;  23.003;   4.682;   4.144;   4.066;   4.032;  -3.889;   1.039;   0.330;;;;;;;;;;;;;;;;;;
2008-03-02T02:49:20.568Z;0;1.5510e+01;0;     0.315;  8667.680;  36410.660; 0;  35363.930;  36410.660;  39962.336;  31294.654; 60;   4.038; 194.471;  31.567; 192.226;  20.862; 189.455;  23.006;   4.606;   4.067;   4.064;   4.031;  -3.889;   1.035;   0.324;;;;;;;;;;;;;;;;;;
2008-03-02T02:49:57.568Z;0;1.4420e+01;0;     0.301;  8667.680;  35186.871; 0;  34102.598;  35186.871;  38710.711;  30043.033; 60;   4.035; 194.740;  31.830; 192.497;  21.120; 189.720;  23.011;   4.490;   3.951;   4.060;   4.028;  -3.889;   1.029;   0.316;;;;;;;;;;;;;;;;;;
2008-03-02T02:50:09.943Z;0;1.4950e+01;0;     0.296;  8686.776;  35790.379; 0;  34720.184;  35790.379;  39334.188;  30647.412; 60;   4.034; 194.830;  31.919; 192.588;  21.207; 189.810;  23.013;   4.451;   3.913;   4.059;   4.027;  -3.889;   1.027;   0.313;;;;;;;;;;;;;;;;;;
2008-03-02T02:50:22.193Z;0;1.4840e+01;0;     0.268;  8686.776;  35664.066; 0;  34589.965;  35664.066;  39204.980;  30518.203; 60;   4.033; 194.919;  32.006; 192.678;  21.294; 189.899;  23.015;   4.413;   3.874;   4.057;   4.027;  -3.889;   1.026;   0.310;;;;;;;;;;;;;;;;;;
2008-03-02T02:50:34.443Z;0;1.6190e+01;0;     0.294;  8686.776;  37160.883; 0;  36131.305;  37160.883;  40734.816;  32048.041; 60;   4.033; 195.008;  32.093; 192.767;  21.380; 189.989;  23.017;   4.375;   3.836;   4.056;   4.026;  -3.888;   1.024;   0.307;;;;;;;;;;;;;;;;;;
2008-03-02T02:50:46.818Z;0;1.4860e+01;0;     0.310;  8686.776;  35690.816; 0;  34617.543;  35690.816;  39232.344;  30545.568; 60;   4.032; 195.098;  32.181; 192.858;  21.468; 190.080;  23.018;   4.336;   3.797;   4.055;   4.025;  -3.888;   1.022;   0.305;;;;;;;;;;;;;;;;;;
2008-03-02T02:50:59.067Z;0;1.5600e+01;0;     0.283;  8686.776;  36517.602; 0;  35469.355;  36517.602;  40077.688;  31390.912; 60;   4.031; 195.187;  32.269; 192.948;  21.554; 190.169;  23.020;   4.298;   3.758;   4.054;   4.024;  -3.888;   1.020;   0.302;;;;;;;;;;;;;;;;;;
2008-03-02T02:51:11.317Z;0;1.5030e+01;0;     0.278;  8706.096;  35881.660; 0;  34809.445;  35881.660;  39433.617;  30727.523; 60;   4.030; 195.277;  32.356; 193.037;  21.640; 190.259;  23.022;   4.260;   3.720;   4.053;   4.023;  -3.888;   1.018;   0.299;;;;;;;;;;;;;;;;;;
2008-03-02T02:51:23.692Z;0;1.5590e+01;0;     0.241;  8706.096;  36505.191; 0;  35451.840;  36505.191;  40071.137;  31365.041; 60;   4.029; 195.367;  32.444; 193.128;  21.728; 190.349;  23.024;   4.221;   3.681;   4.051;   4.023;  -3.888;   1.016;   0.296;;;;;;;;;;;;;;;;;;
2008-03-02T02:51:35.942Z;0;1.5290e+01;0;     0.227;  8706.096;  36174.805; 0;  35111.543;  36174.805;  39733.402;  31027.305; 60;   4.029; 195.456;  32.531; 193.218;  21.814; 190.439;  23.025;   4.183;   3.643;   4.050;   4.022;  -3.888;   1.014;   0.294;;;;;;;;;;;;;;;;;;
2008-03-02T02:52:00.567Z;0;1.5660e+01;0;     0.283;  8726.004;  36593.371; 0;  35537.750;  36593.371;  40167.574;  31441.570; 60;   4.027; 195.635;  32.707; 193.398;  21.988; 190.620;  23.029;   4.105;   3.565;   4.048;   4.020;  -3.887;   1.010;   0.288;;;;;;;;;;;;;;;;;;
2008-03-02T02:52:12.817Z;0;1.5950e+01;0;     0.223;  8726.004;  36907.637; 0;  35861.266;  36907.637;  40488.703;  31762.699; 60;   4.026; 195.724;  32.794; 193.488;  22.074; 190.710;  23.030;   4.067;   3.527;   4.046;   4.019;  -3.887;   1.008;   0.285;;;;;;;;;;;;;;;;;;
2008-03-02T02:52:25.067Z;0;1.7830e+01;0;     0.288;  8726.004;  38911.426; 0;  37920.391;  38911.426;  42533.562;  33807.559; 60;   4.025; 195.813;  32.881; 193.577;  22.160; 190.799;  23.032;   4.029;   3.488;   4.045;   4.019;  -3.887;   1.006;   0.283;;;;;;;;;;;;;;;;;;
2008-03-02T02:52:37.317Z;0;1.6390e+01;0;     0.243;  8726.004;  37388.988; 0;  36356.477;  37388.988;  40980.336;  32254.330; 60;   4.024; 195.902;  32.968; 193.667;  22.247; 190.889;  23.034;   3.990;   3.450;   4.044;   4.018;  -3.887;   1.004;   0.280;;;;;;;;;;;;;;;;;;
2008-03-02T02:52:49.692Z;0;1.7640e+01;0;     0.268;  8726.004;  38714.195; 0;  37717.977;  38714.195;  42332.484;  33606.480; 60;   4.024; 195.992;  33.056; 193.757;  22.334; 190.980;  23.036;   3.951;   3.411;   4.043;   4.017;  -3.887;   1.003;   0.277;;;;;;;;;;;;;;;;;;
2008-03-02T02:53:01.942Z;0;1.8180e+01;0;     0.245;  8745.771;  39277.246; 0;  38291.168;  39277.246;  42912.938;  34167.168; 60;   4.023; 196.081;  33.143; 193.847;  22.420; 191.070;  23.037;   3.913;   3.372;   4.042;   4.016;  -3.887;   1.001;   0.274;;;;;;;;;;;;;;;;;;
2008-03-02T02:53:14.191Z;0;1.7970e+01;0;     0.216;  8745.771;  39058.062; 0;  38066.309;  39058.062;  42689.539;  33943.766; 60;   4.022; 196.170;  33.231; 193.937;  22.506; 191.160;  23.039;   3.874;   3.333;   4.040;   4.015;  -3.887;   0.999;   0.272;;;;;;;;;;;;;;;;;;
2008-03-02T02:53:26.441Z;0;1.7960e+01;0;     0.257;  8745.771;  39051.656; 0;  38059.734;  39051.656;  42683.008;  33937.234; 60;   4.021; 196.259;  33.318; 194.026;  22.593; 191.250;  23.041;   3.836;   3.295;   4.039;   4.015;  -3.886;   0.997;   0.269;;;;;;;;;;;;;;;;;;
2008-03-02T02:53:38.691Z;0;1.7850e+01;0;     0.274;  8745.771;  38939.117; 0;  37944.254;  38939.117;  42568.285;  33822.512; 60;   4.020; 196.348;  33.405; 194.116;  22.679; 191.340;  23.043;   3.797;   3.256;   4.038;   4.014;  -3.886;   0.995;   0.266;;;;;;;;;;;;;;;;;;
2008-03-02T02:53:50.941Z;0;1.7920e+01;0;     0.256;  8745.771;  39009.078; 0;  38016.043;  39009.078;  42639.605;  33893.832; 60;   4.020; 196.437;  33.492; 194.205;  22.765; 191.430;  23.044;   3.759;   3.217;   4.037;   4.013;  -3.886;   0.993;   0.263;;;;;;;;;;;;;;;;;;
2008-03-02T02:54:03.191Z;0;1.8610e+01;0;     0.253;  8764.924;  39721.695; 0;  38742.602;  39721.695;  43372.141;  34607.219; 60;   4.019; 196.526;  33.579; 194.295;  22.852; 191.521;  23.046;   3.720;   3.179;   4.036;   4.012;  -3.886;   0.991;   0.261;;;;;;;;;;;;;;;;;;
2008-03-02T02:54:15.566Z;0;1.7780e+01;0;     0.246;  8764.924;  38863.641; 0;  37862.363;  38863.641;  42497.613;  33732.688; 60;   4.018; 196.615;  33.667; 194.385;  22.939; 191.612;  23.048;   3.681;   3.140;   4.035;   4.012;  -3.886;   0.989;   0.258;;;;;;;;;;;;;;;;;;
2008-03-02T02:54:40.066Z;0;1.8070e+01;0;     0.217;  8764.924;  39168.887; 0;  38175.617;  39168.887;  42808.805;  34043.879; 60;   4.016; 196.793;  33.841; 194.565;  23.111; 191.792;  23.051;   3.604;   3.062;   4.032;   4.010;  -3.885;   0.985;   0.252;;;;;;;;;;;;;;;;;;
2008-03-02T02:54:52.316Z;0;1.8630e+01;0;     0.217;  8764.924;  39733.637; 0;  38754.844;  39733.637;  43384.309;  34619.383; 60;   4.016; 196.882;  33.929; 194.654;  23.198; 191.882;  23.053;   3.566;   3.024;   4.031;   4.009;  -3.885;   0.983;   0.250;;;;;;;;;;;;;;;;;;
2008-03-02T02:55:04.566Z;0;1.9170e+01;0;     0.208;  8785.168;  40291.809; 0;  39322.395;  40291.809;  43959.559;  35174.391; 60;   4.015; 196.971;  34.016; 194.744;  23.284; 191.973;  23.055;   3.527;   2.985;   4.030;   4.008;  -3.885;   0.981;   0.247;;;;;;;;;;;;;;;;;;
2008-03-02T02:55:16.816Z;0;1.9010e+01;0;     0.210;  8785.168;  40124.664; 0;  39151.109;  40124.664;  43789.340;  35004.172; 60;   4.014; 197.060;  34.103; 194.833;  23.370; 192.063;  23.056;   3.488;   2.946;   4.029;   4.008;  -3.885;   0.980;   0.244;;;;;;;;;;;;;;;;;;
2008-03-02T02:55:29.066Z;0;1.8880e+01;0;     0.240;  8785.168;  39999.449; 0;  39022.773;  39999.449;  43661.805;  34876.633; 60;   4.013; 197.149;  34.190; 194.923;  23.456; 192.154;  23.058;   3.450;   2.907;   4.028;   4.007;  -3.885;   0.978;   0.241;;;;;;;;;;;;;;;;;;
2008-03-02T02:55:41.315Z;0;1.9160e+01;0;     0.235;  8785.168;  40281.816; 0;  39312.156;  40281.816;  43949.383;  35164.215; 60;   4.012; 197.238;  34.277; 195.012;  23.542; 192.244;  23.060;   3.411;   2.868;   4.027;   4.006;  -3.885;   0.976;   0.239;;;;;;;;;;;;;;;;;;
2008-03-02T02:55:53.565Z;0;1.9490e+01;0;     0.215;  8785.168;  40604.453; 0;  39642.684;  40604.453;  44277.887;  35492.715; 60;   4.012; 197.327;  34.364; 195.102;  23.629; 192.334;  23.062;   3.372;   2.830;   4.026;   4.005;  -3.884;   0.974;   0.236;;;;;;;;;;;;;;;;;;